ORBCOMM FM113 [+]

Last updated on July 6, 2021, 3:36 p.m. UTC

1 41185U 15081G   21186.24072711  .00000113  00000-0  64364-4 0  9998
2 41185  47.0005 146.9915 0002835 292.7714  67.2870 14.54895887295401
UTC
Height (km)
Latitude
Longitude
Inclination
Orbital Period
UTC large
Height (km)
Speed (km/s)
/
Latitude / Longitude
Inclination (degrees)
Orbital Period (minutes)
Azimuth
Elevation
Range (km)
Doppler Factor
iOS Compass Heading
iOS Angle